Regional Weather Roundup
Issued by NWS

Home | Current Version | Previous Version | Text Only | Print | Product List | Glossary On
Versions: 1 2 3 4 5 6 7 8 9 10 11 12 13 14 15 16 17 18 19 20 21 22 23 24 25 26 27 28 29 30 31 32 33 34 35 36 37 38 39 40 41 42 43 44 45 46 47 48 49 50
000
ASUS43 KTOP 102059
RWRKS

WEATHER ROUNDUP FOR KANSAS
NATIONAL WEATHER SERVICE GOODLAND KS
300 PM CST WED FEB 10 2016

NOTE:  "FAIR" INDICATES FEW OR NO CLOUDS BELOW 12,000 FEET WITH NO
SIGNIFICANT WEATHER AND/OR OBSTRUCTIONS TO VISIBILITY.

KSZ001>006-013>018-027>032-041>047-102200-
NORTHWEST KANSAS

CITY           SKY/WX    TMP DP  RH WIND       PRES   REMARKS
GOODLAND       SUNNY     59  28  30 NW12      30.02F
HAYS           SUNNY     63  30  29 NW23      29.93S
HILL CITY      SUNNY     56  31  38 W15G22    29.94F
RUSSELL        SUNNY     63  30  28 NW21      29.90F
$$

KSZ061>065-074>080-084>089-102200-
SOUTHWEST KANSAS

CITY           SKY/WX    TMP DP  RH WIND       PRES   REMARKS
DODGE CITY     SUNNY     74  14  10 NW20G30   29.97F
ELKHART          N/A     78  19  11 NW15        N/A
GARDEN CITY    SUNNY     76  17  11 NW20      29.99F
GREAT BEND     SUNNY     66  27  22 NW20G25   29.92F
LIBERAL        SUNNY     79  21  11 NW14G22   30.02F
$$

KSZ066>073-081>083-090>101-102200-
SOUTHEAST KANSAS

CITY           SKY/WX    TMP DP  RH WIND       PRES   REMARKS
CHANUTE        SUNNY     54  24  31 S15       29.93F
COFFEYVILLE    SUNNY     57  25  29 SW14G22   29.95F
HUTCHINSON     SUNNY     73  25  16 W18G25    29.89F
MEDICINE LODGE   N/A     79  17  10 NW18      29.91F
NEWTON         SUNNY     63  30  29 SW15      29.91F
PARSONS        SUNNY     55  24  30 SW15      29.95F
WICHITA INTL   SUNNY     64  31  28 SW14      29.90F
WICHITA JABRA  SUNNY     63  31  30 SW13G24   29.90F
WINFIELD       SUNNY     65  32  29 SW16      29.94F
$$

KSZ007>012-019>026-033>040-048>060-102>105-102200-
NORTHEAST KANSAS

CITY           SKY/WX    TMP DP  RH WIND       PRES   REMARKS
CONCORDIA      SUNNY     56  30  37 NW12      29.87F
EMPORIA        SUNNY     61  26  26 SW14G22   29.88F
LAWRENCE       SUNNY     51  22  31 SW14      29.89F
MANHATTAN      SUNNY     60  29  30 SW12      29.86F
OLATHE IND     SUNNY     48  22  35 S10       29.90F
OLATHE EXE     SUNNY     46  20  35 SW10      29.90F
SALINA         SUNNY     68  27  21 NW18      29.88F
TOPEKA BILLARD SUNNY     55  25  31 SW10      29.87F
TOPEKA FORBES  SUNNY     56  26  31 SW13      29.87F
$$



USA.gov is the U.S. government's official web portal to all federal, state and local government web resources and services.